Observations

BIA Manual Entry


Date Temp Humidity Rainfall Dew Point Wind Direction Wind Speed Wind Pressure Condition Visibility
2025-06-03 14:03:43 33 57 23 320 13.3 1009 Distant showers 10 KM
2025-06-03 12:58:22 33 65 0.00 25 340 5.7 1010 Cloudy 20 KM
2025-06-03 11:57:37 33 63 0.00 25 190 7.6 1010 Cloudy 20 KM
2025-06-03 10:56:31 32 66 0.00 25 170 5.7 1011 Cloudy 20 KM
2025-06-03 09:58:43 31 74 25 170 5.7 1011 Partly Cloudy (Day) 20 KM
2025-06-03 08:59:21 30 73 25 160 5.7 1011 Partly Cloudy (Day) 20 KM
2025-06-03 08:00:38 28 85 0.0 25 200 5.7 1011 Partly Cloudy (Day) 20 km
2025-06-03 06:59:09 27 90 0.0 25 240 3.8 1010 Partly Cloudy (Day) 15 KM
2025-06-03 06:01:05 27 92 0.0 25 180 1.9 1009 Partly Cloudy (Night) 10 KM
2025-06-03 05:00:50 27 90 0.0 26 210 1.9 1009 Partly Cloudy (Night) 10 KM
2025-06-03 04:02:19 27 91 0.0 26 160 1.9 1008 Partly Cloudy (Night) 10 KM
2025-06-03 03:03:05 27 91 0.0 26 140 1.9 1008 Partly Cloudy (Night) 10 KM
2025-06-03 02:08:02 27 90 26 130 1.9 1009 Partly Cloudy (Night) 10KM
2025-06-03 01:01:35 28 88 25 090 3.8 1010 Partly Cloudy (Night) 10KM
2025-06-03 00:03:27 28 88 26 070 3.8 1011 Partly Cloudy (Night) 10KM
2025-06-02 23:01:27 28 85 26 030 3.8 1011 Partly Cloudy (Night) 10KM
2025-06-02 22:03:39 29 78 25 020 5.7 1011 Partly Cloudy (Night) 10KM
2025-06-02 20:59:21 29 81 25 040 1.9 1011 Partly Cloudy (Night) 10KM
2025-06-02 20:00:44 30 76 25 340 3.8 1010 Partly Cloudy (Night) 10KM
2025-06-02 18:59:26 30 76 25 310 7.6 1010 Partly Cloudy (Night) 10KM
2025-06-02 17:59:43 31 70 25 310 11.4 1009 Partly Cloudy (Day) 20KM
2025-06-02 16:58:18 31 66 0.00 24 300 11.4 1009 Cloudy 20 KM
2025-06-02 16:00:19 32 59 0.00 23 300 13.3 1009 Cloudy 20 KM
2025-06-02 14:59:14 33 61 0.00 25 310 15.2 1009 Distant showers 20 KM
2025-06-02 14:00:12 33 61 0.00 24 290 19.0 1009 Cloudy 20 KM